Miscellaneous Local Product
Issued by NWS Hastings, NE

Home | Current Version | Previous Version | Text Only | Print | Product List | Glossary Off
Versions: 1 2 3 4 5 6 7 8 9 10 11 12 13 14 15 16 17 18 19 20 21 22 23 24 25 26 27 28 29 30 31 32 33 34 35 36 37 38 39 40 41 42 43 44 45 46 47 48 49 50

000
AXUS43 KGID 200810
MISGRI

GID CWA HOURLY WEATHER ROUNDUP
NATIONAL WEATHER SERVICE HASTINGS NE
300 AM CDT SAT SEP 20 2014

NOTE: "FAIR" INDICATES FEW OR NO CLOUDS BELOW 12,000 FEET WITH NO
SIGNIFICANT WEATHER AND/OR OBSTRUCTIONS TO VISIBILITY.

...SOUTH CENTRAL NEBRASKA...

CITY           SKY/WX    TMP DP  RH WIND       PRES   REMARKS
GRAND ISLAND   MOCLDY    75  61  61 SW16      29.86S
HASTINGS       PTCLDY    71  58  63 S10       29.87F
KEARNEY        MOCLDY    72  59  64 S15       29.87F
ORD            MOCLDY    68  64  87 CALM      29.85S
YORK           PTCLDY    70  63  78 SW9       29.85F
AURORA         MOCLDY    71  60  67 SW8       29.86S
LEXINGTON      CLOUDY    73  61  67 SW8       29.88R
HOLDREGE       PTCLDY    69  59  71 SW8       29.89F
HEBRON         CLEAR     71  61  71 SW12      29.88F

...NEBRASKA PANHANDLE...

CITY           SKY/WX    TMP DP  RH WIND       PRES   REMARKS
CHADRON        PTCLDY    52  49  89 W6        30.03R
ALLIANCE       CLEAR     58  51  78 N12       30.03R
SCOTTSBLUFF    CLEAR     62  50  64 N7        30.04R
SIDNEY         CLEAR     59  53  80 N8        30.02R

...WESTERN AND NORTH CENTRAL NEBRASKA...

CITY           SKY/WX    TMP DP  RH WIND       PRES   REMARKS
VALENTINE      PTCLDY    59  54  83 NW8       29.95R
AINSWORTH      PTCLDY    60  55  83 NW6       29.94R
ONEILL         PTCLDY    64  59  83 CALM      29.88R
BROKEN BOW     PTCLDY    66  60  81 N6        29.88S
IMPERIAL       CLOUDY    67  58  72 W7        29.91R
NORTH PLATTE   MOCLDY    67  60  78 CALM      29.88S
MCCOOK         PTCLDY    68  61  78 S6        29.89F

...EASTERN NEBRASKA...

CITY           SKY/WX    TMP DP  RH WIND       PRES   REMARKS
NORFOLK        CLOUDY    70  65  84 W7        29.83R
SO SIOUX CITY  MOCLDY    65  64  97 SW6       29.80S
TEKAMAH        CLOUDY    70  66  87 E8        29.84S
ALBION         CLOUDY    69  64  83 CALM      29.85S
OMAHA EPPLEY   TSTM      73  67  81 N6        29.85R
OFFUTT AFB     PTCLDY    71  71  99 S6        29.83S
MILLARD        MOCLDY    74  67  78 NW6       29.84R
LINCOLN        PTCLDY    74  64  71 SW12      29.85S
NEBRASKA CITY    N/A     69  68  96 SW12      29.86F
BEATRICE       CLEAR     72  66  82 SW14G20   29.88S
FALLS CITY     CLEAR     70  67  90 S13       29.88R

...NORTHERN KANSAS...

CITY           SKY/WX    TMP DP  RH WIND       PRES   REMARKS
GOODLAND       MOCLDY    67  61  81 S13       29.95F
HILL CITY      CLEAR     70  59  68 W5        29.93S
NORTON         SUNNY     70  57  64 S10       29.90F
PHILLIPSBURG   CLEAR     72  59  64 SW9       29.91R
SMITH CENTER   CLEAR     66  59  77 S9        29.91F
BELOIT         CLEAR     72  63  73 S9        29.91R
HAYS           CLEAR     68  57  68 S13       29.94S
RUSSELL        CLEAR     70  61  73 S18       29.91S
CONCORDIA      CLEAR     70  65  84 S20G26    29.90R
SALINA         CLEAR     71  65  81 S14       29.92F
TOPEKA         CLEAR     70  68  93 S10       29.92F FOG



USA.gov is the U.S. government's official web portal to all federal, state and local government web resources and services.